Home   Weather   Calgary   Past weeks
Flag for Canada

Past Weather in Calgary, Alberta, Canada — Yesterday and Last 2 Weeks

Now
79 °F

Sunny.


Feels Like: 79 °F
Forecast: 88 / 58 °F
Wind: 5 mph from South

Location: Calgary International

Current Time: Jul 23, 2019 at 12:31:27 pm

Latest Report: Jul 23, 2019 at 11:00 am


Visibility: 30 mi

Pressure: 30.02 "Hg (26.59 "Hg at 1063m altitude)

Humidity: 42%

Dew Point: 54 °F

Location of CalgaryLocation

Past Weather in Calgary — Graph

°F

Calgary Temperature Yesterday

Maximum temperature yesterday: 77 °F (at 3:00 pm)
Minimum temperature yesterday: 50 °F (at 6:00 am)
Average temperature yesterday: 65 °F

High & Low Weather Summary for the Past Weeks

 TemperatureHumidityPressure
High79 °F (Jul 23, 11:00 am)100% (Jul 11, 6:17 am)30.29 "Hg (Jul 11, 6:17 am)
Low46 °F (Jul 19, 5:00 am)28% (Jul 18, 12:00 pm)29.55 "Hg (Jul 18, 12:00 am)
Average61 °F68%29.97 "Hg
* Reported Jul 8 11:00 am — Jul 23 11:00 am, Calgary. Weather by CustomWeather, © 2019

Note: Actual official high and low records may vary slightly from our data, if they occured in-between our weather recording intervals... More about our weather records

Advertising

Calgary Weather History for the Previous 24 Hours

Scroll right to see more
 ConditionsComfort  
Time TempWeatherWind HumidityBarometerVisibility
11:00 am
Tue, Jul 23
79 °FSunny.5 mph42%30.02 "Hg30 mi
10:00 am75 °FSunny.2 mph54%30.03 "Hg30 mi
9:00 am72 °FPassing clouds.5 mph53%30.04 "Hg30 mi
8:00 am66 °FPassing clouds.2 mph68%30.05 "Hg40 mi
7:00 am61 °FScattered clouds.3 mph77%30.06 "Hg40 mi
6:00 am59 °FScattered showers. Broken clouds.6 mph88%30.06 "Hg40 mi
5:00 am61 °FScattered showers. Partly cloudy.7 mph83%30.06 "Hg15 mi
4:00 am63 °FScattered showers. Partly cloudy.7 mph83%30.05 "Hg10 mi
3:23 am63 °FSprinkles. Passing clouds.14 mph83%30.07 "Hg7 mi
3:00 am63 °FPassing clouds.13 mph83%30.09 "Hg15 mi
2:00 am59 °FClear.5 mph82%30.07 "Hg15 mi
1:00 am61 °FClear.3 mph83%30.07 "Hg15 mi
12:00 am66 °FClear.No wind73%30.06 "Hg15 mi
11:00 pm
Mon, Jul 22
66 °FPassing clouds.6 mph73%30.08 "Hg20 mi
10:00 pm70 °FPassing clouds.5 mph60%30.08 "Hg40 mi
9:00 pm72 °FBroken clouds.7 mph57%30.07 "Hg30 mi
8:00 pm75 °FBroken clouds.8 mph50%30.09 "Hg30 mi
7:00 pm75 °FPartly sunny.9 mph44%30.10 "Hg30 mi
6:00 pm77 °FPartly sunny.8 mph44%30.11 "Hg30 mi
5:00 pm77 °FPartly sunny.8 mph39%30.12 "Hg15 mi
4:00 pm75 °FBroken clouds.6 mph47%30.13 "Hg15 mi
3:00 pm77 °FBroken clouds.6 mph44%30.13 "Hg15 mi
2:00 pm75 °FPartly sunny.7 mph47%30.13 "Hg15 mi
1:00 pm73 °FScattered clouds.7 mph50%30.14 "Hg10 mi
12:00 pm72 °FScattered clouds.3 mph53%30.14 "Hg15 mi
Weather by CustomWeather, © 2019

See weather overview